Change the Weather History Date:

Monday, October 29, 2012

  Actual Average Record
Temperature  
Mean Temperature 63 °F -  
Max Temperature 69 °F 66 °F 78 °F (1999)
Min Temperature 57 °F 55 °F 55 °F (2014)
Degree Days  
Heating Degree Days 2    
Growing Degree Days 13 (Base 50)    
Moisture  
Dew Point 47 °F    
Average Humidity 59    
Maximum Humidity 88    
Minimum Humidity 33    
Precipitation  
Precipitation 0.00 in - - ()
Sea Level Pressure  
Sea Level Pressure 29.82 in    
Wind  
Wind Speed 9 mph ()    
Max Wind Speed 17 mph    
Max Gust Speed 26 mph    
Visibility 6.1 miles    
Events Rain    
Averages and records for this station are not official NWS values.
T = Trace of Precipitation, MM = Missing Value Source: Averaged Metar Reports

Daily Weather History Graph

Daily Weather History Graph

Search for Another Location

Airport or City:

Trip Planner

Search our weather history database for the weather conditions in past years. The results will help you decide how hot, cold, wet, or windy it might be!

Date:

Astronomy

Oct. 29, 2012 Rise Set
Actual Time 6:20 AM CET 5:01 PM CET
Civil Twilight 5:53 AM CET 5:28 PM CET
Nautical Twilight 5:22 AM CET 5:59 PM CET
Astronomical Twilight 4:51 AM CET 6:30 PM CET
Moon 4:43 PM CET (10/29) 5:53 AM CET (10/29)
Length of Visible Light 11h 35m
Length of Day
10h 41m
Full, 100% of the Moon is Illuminated
Oct 29
Full
Oct 29
Full
Nov 7
Last Quarter
Nov 13
New
Nov 20
First Quarter

Hourly Weather History & Observations

Time (CET) Temp. Dew Point Humidity Pressure Visibility Wind Dir Wind Speed Gust Speed Precip Events Conditions
5:50 AM 59.0 °F 48.2 °F 67% 29.80 in 6.2 mi North 8.1 mph - N/A   Partly Cloudy
6:50 AM 59.0 °F 46.4 °F 63% 29.80 in 6.2 mi NE 6.9 mph - N/A   Partly Cloudy
7:50 AM 62.6 °F 46.4 °F 55% 29.80 in 6.2 mi North 8.1 mph - N/A   Partly Cloudy
8:50 AM 62.6 °F 44.6 °F 52% 29.80 in 6.2 mi North 6.9 mph - N/A   Partly Cloudy
9:50 AM 64.4 °F 41.0 °F 42% 29.80 in 6.2 mi NNW 8.1 mph - N/A   Partly Cloudy
10:50 AM 66.2 °F 41.0 °F 40% 29.80 in 6.2 mi North 9.2 mph - N/A   Partly Cloudy
11:50 AM 66.2 °F 41.0 °F 40% 29.80 in 6.2 mi NNE 9.2 mph - N/A   Partly Cloudy
12:50 PM 68.0 °F 41.0 °F 37% 29.77 in 6.2 mi North 11.5 mph - N/A   Partly Cloudy
1:50 PM 69.8 °F 39.2 °F 33% 29.77 in 6.2 mi NNW 12.7 mph - N/A   Partly Cloudy
2:50 PM 64.4 °F 48.2 °F 56% 29.77 in 6.2 mi North 12.7 mph - N/A   Scattered Clouds
3:50 PM 64.4 °F 46.4 °F 52% 29.77 in 6.2 mi NW 11.5 mph - N/A   Mostly Cloudy
4:50 PM 62.6 °F 46.4 °F 55% 29.80 in 6.2 mi NNW 10.4 mph - N/A   Mostly Cloudy
5:50 PM 62.6 °F 44.6 °F 52% 29.80 in 6.2 mi NNW 11.5 mph 26.5 mph N/A   Light Drizzle
6:50 PM 60.8 °F 44.6 °F 55% 29.83 in 6.2 mi NNW 11.5 mph - N/A   Mostly Cloudy
7:35 PM 60.8 °F 48.2 °F 63% 29.83 in 6.2 mi WNW 12.7 mph - N/A Rain Rain
7:43 PM 57.2 °F 50.0 °F 77% 29.86 in 5.0 mi NW 12.7 mph - N/A Rain Heavy Rain
7:50 PM 57.2 °F 51.8 °F 82% 29.86 in 5.0 mi NNW 11.5 mph - N/A Rain Heavy Rain
8:03 PM 57.2 °F 53.6 °F 88% 29.86 in 6.2 mi North 9.2 mph - N/A   Mostly Cloudy
8:50 PM 60.8 °F 50.0 °F 68% 29.86 in 6.2 mi North 12.7 mph - N/A   Mostly Cloudy
8:53 PM 60.8 °F 50.0 °F 68% 29.86 in 6.2 mi North 13.8 mph - N/A Rain Rain
9:50 PM 60.8 °F 48.2 °F 63% 29.89 in 6.2 mi NNW 17.3 mph - N/A   Mostly Cloudy
10:50 PM 60.8 °F 48.2 °F 63% 29.89 in 6.2 mi NNW 12.7 mph - N/A   Mostly Cloudy
11:50 PM 59.0 °F 51.8 °F 77% 29.89 in 6.2 mi Variable 6.9 mph - N/A Rain Light Rain